Date String (YYYY-MM-DD hh:mm:ss) UTC,Instrument flags,Ambient pressure (hPa),Sample flow (lpm),Bypass flow (lpm),Sample temperature (°C),Ambient temperature (°C),ASC tube jacket temperature (°C),LED temperature (°C),Box temperature (°C),Sample RH (%),Span deviation,Mass concentration (μg/m³),Mass concentration (μg/m³),Mass concentration (μg/m³)
DateTimeUTC,F1_M11,P_M11,Q1_M11,Q2_M11,T1_M11,T2_M11,T3_M11,T4_M11,T5_M11,U1_M11,ZSPAN_M11,X0_M11,X2_M11,X1_M11
2022-12-12 14:00:00,,0811.7,5.01,0.00,23.2,21.7,00.0,32.1,24.9,07.3,0000.0,0007.88,0002.53,0001.86
2022-12-12 14:01:00,,0811.7,5.00,0.00,23.2,21.7,00.0,32.1,24.9,07.2,0000.0,0007.85,0002.51,0001.83
2022-12-12 14:02:00,,0811.7,5.00,0.00,23.2,21.7,00.0,32.1,24.9,07.3,0000.0,0007.82,0002.46,0001.80
2022-12-12 14:03:00,,0811.7,4.99,0.00,23.2,21.7,00.0,32.1,24.9,07.2,0000.0,0007.83,0002.43,0001.76
2022-12-12 14:04:00,,0811.7,4.99,0.00,23.2,21.7,00.0,32.1,24.9,07.2,0000.0,0007.95,0002.44,0001.73
2022-12-12 14:05:00,,0811.7,4.99,0.00,23.2,21.7,00.0,32.1,24.9,07.2,0000.0,0008.16,0002.38,0001.70
2022-12-12 14:06:00,,0811.8,4.99,0.00,23.2,21.7,00.0,32.1,24.9,07.2,0000.0,0007.35,0002.35,0001.68
2022-12-12 14:07:00,,0811.7,5.01,0.00,23.2,21.7,00.0,32.0,24.9,07.2,0000.0,0006.31,0002.21,0001.64
2022-12-12 14:08:00,,0811.7,5.00,0.00,23.2,21.7,00.0,32.0,24.9,07.3,0000.0,0005.48,0002.12,0001.61
2022-12-12 14:09:00,,0811.7,5.01,0.00,23.1,21.6,00.0,32.0,24.9,07.3,0000.0,0004.62,0002.11,0001.61
2022-12-12 14:10:00,,0811.7,5.01,0.00,23.1,21.6,00.0,32.0,24.9,07.3,0000.0,0004.53,0002.10,0001.60
2022-12-12 14:11:00,,0811.6,5.00,0.00,23.1,21.6,00.0,32.0,24.9,07.3,0000.0,0004.59,0002.11,0001.60
2022-12-12 14:12:00,,0811.6,4.99,0.00,23.1,21.6,00.0,32.0,24.9,07.2,0000.0,0004.71,0002.11,0001.61
2022-12-12 14:13:00,,0811.6,4.99,0.00,23.1,21.6,00.0,32.0,24.9,07.2,0000.0,0005.95,0002.10,0001.62
2022-12-12 14:14:00,,0811.6,5.00,0.00,23.1,21.6,00.0,32.0,24.9,07.2,0000.0,0006.33,0002.08,0001.63
2022-12-12 14:15:00,,0811.5,5.01,0.00,23.1,21.6,00.0,32.0,24.9,07.3,0000.0,0006.12,0002.08,0001.64
2022-12-12 14:16:00,,0811.5,5.00,0.00,23.1,21.6,00.0,32.0,24.9,07.3,0000.0,0005.55,0002.10,0001.66
2022-12-12 14:17:00,,0811.6,5.01,0.00,23.1,21.6,00.0,32.0,24.9,07.3,0000.0,0005.26,0002.10,0001.66
2022-12-12 14:18:00,,0811.6,5.02,0.00,23.1,21.7,00.0,32.0,24.9,07.3,0000.0,0005.56,0002.14,0001.66
2022-12-12 14:19:00,,0811.6,4.99,0.00,23.1,21.7,00.0,32.0,24.9,07.3,0000.0,0005.97,0002.15,0001.67
2022-12-12 14:20:00,,0811.6,4.99,0.00,23.1,21.7,00.0,32.0,25.0,07.4,0000.0,0007.46,0002.12,0001.65
2022-12-12 14:21:00,,0811.6,4.99,0.00,23.1,21.7,00.0,32.0,25.0,07.4,0000.0,0007.65,0002.09,0001.64
2022-12-12 14:22:00,,0811.7,5.00,0.00,23.1,21.6,00.0,32.0,24.9,07.4,0000.0,0007.68,0002.12,0001.65
2022-12-12 14:23:00,,0811.6,5.01,0.00,23.1,21.6,00.0,32.0,24.9,07.4,0000.0,0007.63,0002.11,0001.63
2022-12-12 14:24:00,,0811.6,5.00,0.00,23.1,21.6,00.0,32.0,24.8,07.3,0000.0,0006.70,0002.09,0001.60
2022-12-12 14:25:00,,0811.6,5.01,0.00,23.0,21.5,00.0,32.0,24.8,07.3,0000.0,0007.26,0002.06,0001.57
2022-12-12 14:26:00,,0811.6,5.01,0.00,23.0,21.5,00.0,32.0,24.7,07.2,0000.0,0007.25,0002.05,0001.55
2022-12-12 14:27:00,,0811.6,5.00,0.00,23.0,21.5,00.0,32.0,24.7,07.2,0000.0,0007.40,0002.07,0001.52
2022-12-12 14:28:00,,0811.6,5.00,0.00,23.0,21.5,00.0,31.9,24.8,07.2,0000.0,0006.94,0002.04,0001.48
2022-12-12 14:29:00,,0811.6,4.98,0.00,23.0,21.5,00.0,31.9,24.7,07.2,0000.0,0006.84,0001.99,0001.43
2022-12-12 14:30:00,,0811.6,4.99,0.00,23.0,21.5,00.0,31.9,24.7,07.3,0000.0,0006.49,0002.00,0001.43
2022-12-12 14:31:00,,0811.6,5.00,0.00,23.0,21.5,00.0,31.9,24.7,07.3,0000.0,0004.76,0001.96,0001.42
2022-12-12 14:32:00,,0811.6,5.00,0.00,23.0,21.5,00.0,31.9,24.7,07.3,0000.0,0004.67,0001.92,0001.41
2022-12-12 14:33:00,,0811.6,5.01,0.00,23.0,21.5,00.0,31.9,24.7,07.3,0000.0,0005.74,0001.90,0001.37
2022-12-12 14:34:00,,0811.6,5.01,0.00,23.0,21.4,00.0,31.9,24.7,07.3,0000.0,0005.82,0001.92,0001.38
2022-12-12 14:35:00,,0811.6,5.01,0.00,22.9,21.4,00.0,31.9,24.7,07.4,0000.0,0005.55,0001.91,0001.37
2022-12-12 14:36:00,,0811.6,5.00,0.00,22.9,21.4,00.0,31.9,24.6,07.3,0000.0,0005.63,0001.94,0001.38
2022-12-12 14:37:00,,0811.6,4.97,0.00,22.9,21.4,00.0,31.9,24.6,07.2,0000.0,0005.99,0001.91,0001.36
2022-12-12 14:38:00,,0811.6,5.00,0.00,22.9,21.3,00.0,31.9,24.7,07.9,0000.0,0005.78,0001.84,0001.34
2022-12-12 14:39:00,,0811.6,5.00,0.00,22.9,21.3,00.0,31.8,24.7,07.7,0000.0,0005.74,0001.80,0001.34
2022-12-12 14:40:00,,0811.5,5.00,0.00,22.9,21.3,00.0,31.8,24.6,07.5,0000.0,0005.99,0001.78,0001.35
2022-12-12 14:41:00,,0811.6,5.00,0.00,22.9,21.3,00.0,31.8,24.6,07.3,0000.0,0005.85,0001.75,0001.35
2022-12-12 14:42:00,,0811.5,5.00,0.00,22.9,21.3,00.0,31.8,24.6,07.3,0000.0,0005.95,0001.79,0001.34
2022-12-12 14:43:00,,0811.5,4.99,0.00,22.9,21.3,00.0,31.8,24.7,07.3,0000.0,0006.70,0001.81,0001.32
2022-12-12 14:44:00,,0811.5,5.01,0.00,22.8,21.3,00.0,31.8,24.7,07.3,0000.0,0005.50,0001.78,0001.32
2022-12-12 14:45:00,,0811.5,5.02,0.00,22.8,21.2,00.0,31.8,24.7,07.4,0000.0,0005.28,0001.70,0001.30
2022-12-12 14:46:00,,0811.5,4.98,0.00,22.8,21.2,00.0,31.8,24.6,07.4,0000.0,0005.84,0001.72,0001.29
2022-12-12 14:47:00,,0811.6,5.00,0.00,22.8,21.3,00.0,31.8,24.5,07.3,0000.0,0005.97,0001.74,0001.30
2022-12-12 14:48:00,,0811.6,5.00,0.00,22.8,21.3,00.0,31.7,24.5,07.3,0000.0,0005.46,0001.77,0001.31
2022-12-12 14:49:00,,0811.5,5.00,0.00,22.8,21.3,00.0,31.7,24.6,07.4,0000.0,0005.57,0001.82,0001.32
2022-12-12 14:50:00,,0811.6,5.01,0.00,22.8,21.3,00.0,31.7,24.6,07.4,0000.0,0005.60,0001.85,0001.32
2022-12-12 14:51:00,,0811.5,5.00,0.00,22.8,21.3,00.0,31.7,24.5,07.3,0000.0,0005.28,0001.87,0001.33
2022-12-12 14:52:00,,0811.5,5.00,0.00,22.8,21.3,00.0,31.7,24.5,07.3,0000.0,0005.43,0001.88,0001.32
2022-12-12 14:53:00,,0811.6,5.00,0.00,22.8,21.3,00.0,31.7,24.5,07.2,0000.0,0006.00,0001.88,0001.31
2022-12-12 14:54:00,,0811.6,5.00,0.00,22.8,21.3,00.0,31.7,24.5,07.3,0000.0,0005.30,0001.88,0001.32
2022-12-12 14:55:00,,0811.5,5.01,0.00,22.8,21.3,00.0,31.7,24.5,07.3,0000.0,0005.25,0001.91,0001.34
2022-12-12 14:56:00,,0811.5,5.00,0.00,22.8,21.3,00.0,31.7,24.5,07.3,0000.0,0005.44,0001.98,0001.36
2022-12-12 14:57:00,,0811.5,4.97,0.00,22.8,21.3,00.0,31.7,24.5,07.3,0000.0,0004.90,0001.96,0001.37
2022-12-12 14:58:00,,0811.4,5.00,0.00,22.8,21.3,00.0,31.7,24.4,07.2,0000.0,0004.22,0001.97,0001.35
2022-12-12 14:59:00,,0811.3,5.00,0.00,22.7,21.3,00.0,31.7,24.4,07.2,0000.0,0004.43,0001.98,0001.35
